TimeCST,TemperatureF,Dew PointF,Humidity,Sea Level PressureIn,VisibilityMPH,Wind Direction,Wind SpeedMPH,Gust SpeedMPH,PrecipitationIn,Events,Conditions,WindDirDegrees,DateUTC
12:15 AM,62.6,44.6,52,29.74,10.0,South,15.0,20.7,N/A,,Scattered Clouds,190,2012-11-11 06:15:00
12:35 AM,62.6,44.6,52,29.74,10.0,SSW,20.7,29.9,N/A,,Scattered Clouds,200,2012-11-11 06:35:00
12:55 AM,60.8,46.4,59,29.75,10.0,SSW,15.0,23.0,N/A,Rain,Light Rain,200,2012-11-11 06:55:00
1:15 AM,60.8,46.4,59,29.76,10.0,SSW,15.0,26.5,N/A,,Overcast,200,2012-11-11 07:15:00
1:35 AM,59.0,46.4,63,29.77,10.0,SSW,15.0,21.9,N/A,Rain-Thunderstorm,Light Thunderstorms and Rain,200,2012-11-11 07:35:00
1:55 AM,59.0,48.2,67,29.77,7.0,SSW,13.8,26.5,N/A,Rain-Thunderstorm,Light Thunderstorms and Rain,200,2012-11-11 07:55:00
2:15 AM,59.0,46.4,63,29.77,10.0,SSW,16.1,25.3,N/A,,Overcast,200,2012-11-11 08:15:00
2:35 AM,59.0,46.4,63,29.77,10.0,SSW,15.0,25.3,N/A,Rain,Light Rain,200,2012-11-11 08:35:00
2:55 AM,59.0,48.2,67,29.78,10.0,South,15.0,25.3,N/A,Rain,Rain,190,2012-11-11 08:55:00
3:15 AM,55.4,50.0,82,29.78,10.0,SSW,13.8,21.9,0.02,Rain,Light Rain,210,2012-11-11 09:15:00
3:35 AM,55.4,50.0,82,29.77,10.0,SSW,13.8,-,0.02,,Overcast,210,2012-11-11 09:35:00
3:55 AM,57.2,50.0,77,29.77,10.0,SSW,11.5,18.4,0.02,,Mostly Cloudy,210,2012-11-11 09:55:00
4:15 AM,59.0,48.2,67,29.76,10.0,SSW,12.7,18.4,N/A,,Scattered Clouds,200,2012-11-11 10:15:00
4:35 AM,59.0,50.0,72,29.76,10.0,SSW,11.5,-,N/A,,Scattered Clouds,210,2012-11-11 10:35:00
4:55 AM,59.0,50.0,72,29.75,10.0,SSW,16.1,19.6,N/A,,Scattered Clouds,200,2012-11-11 10:55:00
5:35 AM,59.0,50.0,72,29.75,10.0,SSW,13.8,19.6,N/A,,Mostly Cloudy,210,2012-11-11 11:35:00
5:55 AM,59.0,50.0,72,29.74,10.0,SSW,11.5,-,N/A,,Scattered Clouds,200,2012-11-11 11:55:00
6:15 AM,59.0,50.0,72,29.73,10.0,South,11.5,17.3,N/A,,Scattered Clouds,190,2012-11-11 12:15:00
7:35 AM,55.4,50.0,82,29.73,10.0,South,12.7,18.4,N/A,,Scattered Clouds,190,2012-11-11 13:35:00
7:55 AM,57.2,50.0,77,29.74,10.0,South,15.0,23.0,N/A,,Mostly Cloudy,180,2012-11-11 13:55:00
8:15 AM,57.2,50.0,77,29.73,10.0,South,19.6,24.2,N/A,,Overcast,180,2012-11-11 14:15:00
8:55 AM,59.0,50.0,72,29.72,10.0,South,11.5,16.1,N/A,,Overcast,170,2012-11-11 14:55:00
9:15 AM,59.0,50.0,72,29.71,10.0,South,10.4,17.3,N/A,,Overcast,180,2012-11-11 15:15:00
9:35 AM,59.0,50.0,72,29.70,10.0,South,19.6,26.5,N/A,,Overcast,170,2012-11-11 15:35:00
9:55 AM,59.0,50.0,72,29.69,10.0,South,15.0,26.5,N/A,,Overcast,180,2012-11-11 15:55:00
10:15 AM,55.4,50.0,82,29.70,4.0,South,20.7,34.5,0.03,Rain,Heavy Rain,180,2012-11-11 16:15:00
10:35 AM,55.4,51.8,88,29.68,10.0,South,11.5,-,0.17,Rain-Thunderstorm,Light Thunderstorms and Rain,190,2012-11-11 16:35:00
10:55 AM,55.4,51.8,88,29.69,10.0,South,15.0,23.0,0.18,Rain,Light Rain,190,2012-11-11 16:55:00
11:15 AM,55.4,51.8,88,29.68,4.0,South,10.4,-,0.04,Rain-Thunderstorm,Rain,190,2012-11-11 17:15:00
11:35 AM,55.4,51.8,88,29.67,7.0,South,13.8,17.3,0.08,Rain,Rain,190,2012-11-11 17:35:00
11:55 AM,55.4,51.8,88,29.65,3.0,South,10.4,-,0.13,Rain,Rain,190,2012-11-11 17:55:00
12:15 PM,55.4,53.6,94,29.65,7.0,SSW,11.5,16.1,0.04,Rain,Rain,200,2012-11-11 18:15:00
12:35 PM,55.4,53.6,94,29.65,4.0,SSW,9.2,-,0.07,Rain,Rain,210,2012-11-11 18:35:00
12:55 PM,55.4,53.6,94,29.63,7.0,SSW,5.8,-,0.10,Rain,Light Rain,210,2012-11-11 18:55:00
1:15 PM,55.4,53.6,94,29.63,7.0,SSW,5.8,-,0.01,Rain,Rain,210,2012-11-11 19:15:00
1:35 PM,55.4,53.6,94,29.62,4.0,SW,8.1,-,0.03,Rain,Rain,230,2012-11-11 19:35:00
1:55 PM,55.4,53.6,94,29.62,4.0,SW,8.1,-,0.05,Rain,Light Rain,230,2012-11-11 19:55:00
2:15 PM,51.8,48.2,88,29.65,5.0,WNW,11.5,25.3,0.05,Rain,Rain,290,2012-11-11 20:15:00
2:35 PM,51.8,48.2,88,29.65,7.0,West,8.1,17.3,0.10,Rain,Rain,280,2012-11-11 20:35:00
2:55 PM,50.0,48.2,94,29.66,10.0,West,3.5,-,0.14,Rain,Light Rain,280,2012-11-11 20:55:00
3:15 PM,50.0,46.4,87,29.68,10.0,WNW,6.9,-,N/A,Rain,Rain,290,2012-11-11 21:15:00
3:35 PM,50.0,46.4,87,29.67,5.0,West,3.5,-,0.02,Rain,Rain,270,2012-11-11 21:35:00
3:55 PM,48.2,46.4,93,29.67,4.0,Calm,Calm,-,0.05,Rain,Light Rain,0,2012-11-11 21:55:00
4:15 PM,48.2,46.4,93,29.69,7.0,SW,5.8,-,0.03,Rain,Rain,220,2012-11-11 22:15:00
4:35 PM,48.2,46.4,93,29.68,5.0,SSW,5.8,-,0.06,Rain,Light Rain,210,2012-11-11 22:35:00
4:55 PM,48.2,46.4,93,29.69,5.0,SW,8.1,-,0.08,Rain,Light Rain,230,2012-11-11 22:55:00
5:15 PM,48.2,46.4,93,29.71,5.0,West,13.8,-,0.02,Rain,Rain,260,2012-11-11 23:15:00
5:35 PM,44.6,42.8,93,29.74,10.0,WNW,8.1,17.3,0.05,Rain,Light Rain,290,2012-11-11 23:35:00
5:55 PM,42.8,41.0,93,29.75,7.0,West,9.2,16.1,0.06,Rain,Rain,270,2012-11-11 23:55:00
6:15 PM,41.0,37.4,87,29.74,7.0,WNW,9.2,-,0.01,Rain,Light Rain,290,2012-11-12 00:15:00
6:35 PM,39.2,37.4,93,29.75,10.0,WNW,11.5,17.3,0.01,,Drizzle,290,2012-11-12 00:35:00
6:55 PM,37.4,35.6,93,29.77,10.0,West,12.7,-,0.01,,Overcast,270,2012-11-12 00:55:00
7:15 PM,35.6,33.8,93,29.78,10.0,West,15.0,21.9,N/A,,Overcast,270,2012-11-12 01:15:00
7:35 PM,35.6,33.8,93,29.79,10.0,West,15.0,24.2,N/A,,Overcast,270,2012-11-12 01:35:00
7:55 PM,33.8,32.0,93,29.79,5.0,West,12.7,19.6,N/A,,Overcast,270,2012-11-12 01:55:00
8:15 PM,33.8,32.0,93,29.84,10.0,West,9.2,18.4,N/A,,Overcast,260,2012-11-12 02:15:00
8:35 PM,33.8,32.0,93,29.84,10.0,West,12.7,18.4,N/A,,Overcast,260,2012-11-12 02:35:00
8:55 PM,33.8,32.0,93,29.84,10.0,West,15.0,20.7,N/A,,Overcast,280,2012-11-12 02:55:00
9:15 PM,32.0,32.0,100,29.87,10.0,West,10.4,17.3,N/A,,Overcast,260,2012-11-12 03:15:00
9:35 PM,32.0,30.2,93,29.88,10.0,West,12.7,20.7,N/A,,Overcast,280,2012-11-12 03:35:00
9:55 PM,32.0,30.2,93,29.89,10.0,West,11.5,19.6,N/A,,Overcast,280,2012-11-12 03:55:00
10:15 PM,32.0,30.2,93,29.87,10.0,West,15.0,20.7,N/A,,Overcast,270,2012-11-12 04:15:00
10:35 PM,32.0,28.4,87,29.86,10.0,WNW,9.2,19.6,N/A,,Overcast,290,2012-11-12 04:35:00
10:55 PM,32.0,28.4,87,29.89,10.0,West,13.8,17.3,N/A,,Overcast,280,2012-11-12 04:55:00
11:15 PM,30.2,26.6,86,29.91,10.0,West,12.7,21.9,N/A,,Overcast,280,2012-11-12 05:15:00
11:35 PM,30.2,24.8,80,29.91,10.0,West,11.5,-,N/A,,Overcast,280,2012-11-12 05:35:00
11:55 PM,30.2,26.6,86,29.92,10.0,West,11.5,-,N/A,,Overcast,260,2012-11-12 05:55:00